www.pogodaiklimat.ru

Погода и климат >> Архив погоды >> Беларусь >> Слуцк


ПОГОДА в Слуцке

  • Прогноз погоды в Слуцке
  • Монитор погоды в Слуцке
  • Климат города

АРХИВ ПОГОДЫ в Слуцке

Время (UTC), дата Ветер
(напр.,м/с)
 
Видим.   Явления Облачность Т
(С)
Тd
(С)
f
(%)
Тe
(С)
Тes
(С)
Комфортность P
(гПа)
Po
(гПа)
Тmin
(С)
Tmax
(С)
R
(мм)
R24
(мм)
S
(см)
09 14.11 З 6 10 км 10/10 300 м
[St]
+2.1 +0.8 91 -4 -4 1017.1 996.9
12 14.11 СЗ 4 10 км {дождь} 10/10 450 м
[St]
+3.2 +1.7 90 -2 -2 1018.3 998.1
15 14.11 СЗ 3 11 км 9/9 720 м
[Sc]
+2.7 +0.6 86 -1 -1 1020.7 1000.5
18 14.11 штиль 0 11 км 9/0
[Ac und]
+2.1 +0.5 89 +1 +1 1021.8 1001.5 +3.5 0.0
21 14.11 З 3 10 км {дождь} 9/9 540 м
[Sc]
+2.4 +1.6 94 -2 -2 1022.3 1002.1
00 15.11 ЮЗ 3 10 км {дождь} 10/0
[As op]
+1.9 +0.6 91 -2 -2 1022.5 1002.2
03 15.11 ЮЗ 4 11 км 10/0
[As op]
+1.3 -0.4 88 -4 -4 1022.2 1001.9
06 15.11 ЮЗ 5 10 км 9/0
[Ac und]
+1.4 -0.5 87 -4 -4 1022.2 1001.9 +1.1 0.1
09 15.11 З 6 10 км 10/10 400 м
[St]
+2.6 +1.0 89 -3 -3 1022.9 1002.6
12 15.11 З 7 7000 м дымка 10/10 450 м
[St]
+3.6 +2.1 90 -3 -3 1023.2 1002.9
15 15.11 З 6 7000 м дымка 10/10 420 м
[St]
+3.8 +2.8 93 -2 -2 1023.7 1003.4
18 15.11 З 5 7000 м дымка 10/10 300 м
[St]
+3.8 +2.6 92 -1 -1 1023.6 1003.3 +4.1
21 15.11 З 4 6000 м дымка 9/9 1410 м
[Sc]
+3.6 +2.9 95 -1 -1 1023.8 1003.5
00 16.11 З 5 8000 м дымка 10/0
[As op]
+3.8 +3.1 95 -1 -1 1024.0 1003.7
03 16.11 З 5 10 км 9/0
[Ac und]
+3.9 +2.9 93 -1 -1 1024.5 1004.2
06 16.11 З 5 6000 м дымка 10/10 420 м
[St]
+4.0 +3.0 93 -1 -1 1025.3 1005.0 +3.5
09 16.11 З 5 8000 м дымка 9/9 630 м
[Sc]
+5.3 +3.9 91 +1 +1 1026.3 1006.2
12 16.11 СЗ 5 14 км 9/5 600 м
[Sc Ac trans]
+6.9 +3.3 78 +3 +3 1026.3 1006.3
15 16.11 З 2 12 км 9/9 800 м
[Sc]
+5.0 +3.3 89 +2 +2 1026.5 1006.4
18 16.11 З 3 7000 м дымка 8/8 600 м
[Sc]
+3.2 +2.2 93 -1 -1 1026.7 1006.4 +7.1
21 16.11 ЮЗ 1 6000 м дымка 9/9 1080 м
[Sc]
+3.4 +2.7 95 +2 +2 1026.7 1006.4
00 17.11 ЮЗ 1 3500 м дымка 6/6 1000 м
[Sc]
+3.6 +3.1 97 +2 +2 1026.1 1005.8
03 17.11 Ю 1 100 м туман ?/? +1.3 +1.3 100 -1 -1 1025.1 1004.7
06 17.11 ЮЗ 3 2000 м дымка {туман} 9/9 1230 м
[Sc]
+1.8 +1.3 96 -3 -3 1024.4 1004.0 +1.1
09 17.11 ЮЗ 3 6000 м дымка 9/5 1000 м
[Sc Ac und]
+2.7 +0.6 86 -1 -1 1023.5 1003.2
12 17.11 ЮЗ 4 10 км 9/9 1000 м
[Sc]
+2.9 -0.1 81 -2 -2 1022.1 1001.9
15 17.11 ЮЗ 3 7000 м дымка 9/5 1000 м
[Sc Ac trans]
+1.2 +0.1 92 -3 -3 1021.7 1001.4
18 17.11 ЮЗ 4 6000 м дымка 9/9 1320 м
[Sc]
+0.5 -0.6 92 -5 -5 1021.4 1001.1 +3.3
21 17.11 З 3 10 км 9/9 540 м
[Sc]
+1.5 +0.1 90 -3 -3 1021.0 1000.7
00 18.11 З 3 5000 м слабый дождь 10/0 600 м
[As op]
+1.8 +0.7 92 -3 -3 1020.6 1000.3
03 18.11 З 2 7000 м дымка {дождь} 9/9 660 м
[Sc]
+1.9 +1.1 94 -2 -2 1019.8 999.5
06 18.11 ЮЗ 1 3700 м дымка 9/9 800 м
[Sc]
+1.8 +1.5 98 -0 -0 1019.3 999.0 +0.5 0.0
09 18.11 ЮЗ 2 2700 м дымка 10/10 120 м
[St]
+2.4 +1.9 96 -1 -1 1018.5 998.3
12 18.11 З 2 800 м туман {морось} ?/? +2.6 +2.6 100 -1 -1 1016.4 996.3
15 18.11 ЮЗ 2 3500 м дымка {туман} 9/9 750 м
[Sc]
+2.8 +2.3 97 -1 -1 1015.0 994.9
18 18.11 СЗ 1 2800 м слабый дождь {туман} 10/0 330 м
[As op]
+2.2 +1.7 96 0 0 1013.5 993.3 +3.2 0.0
21 18.11 ЮЗ 2 4200 м дымка {дождь} 10/10 150 м
[St]
+0.1 -0.2 98 -4 -4 1012.1 991.9
00 19.11 штиль 0 300 м туман {дождь} ?/? -0.2 -0.2 100 -2 -2 1010.1 989.9
03 19.11 ЮЗ 2 1600 м слабая морось {туман} 10/10 180 м
[St]
+1.8 +1.5 98 -2 -2 1007.7 987.6
06 19.11 ЮЗ 4 5000 м дымка {морось, туман} 9/9 600 м
[Sc]
+1.8 +1.3 96 -3 -3 1006.6 986.6 -0.5 0.0
09 19.11 ЮЗ 5 4500 м слабый дождь 10/10 330 м
[Frnb Ns]
+2.4 +1.4 93 -3 -3 1005.9 986.0
12 19.11 З 6 6000 м дымка {дождь} 9/9 600 м
[Sc]
+3.2 +1.7 90 -3 -3 1005.4 985.5
15 19.11 ЮЗ 4 8000 м дымка 9/9 600 м
[Sc]
+2.0 +0.7 91 -3 -3 1006.0 986.0
18 19.11 ЮЗ 5 8000 м дымка {ливн. осадки} 9/0
[Ac und]
+2.5 +0.6 87 -3 -3 1006.5 986.6 +3.7 0.3
21 19.11 ЮЗ 5 9000 м дымка 9/0
[Ac und]
+2.4 +0.3 86 -3 -3 1007.0 987.0
00 20.11 Ю 4 11 км 10/0
[As op]
+2.3 +0.4 87 -3 -3 1006.6 986.6
03 20.11 ЮЗ 4 10 км 10/0
[As op]
+1.9 -0.6 83 -3 -3 1006.9 986.9
06 20.11 ЮЗ 3 10 км 6/0
[Ac trans]
+0.8 -0.6 90 -4 -4 1007.3 987.3 +0.8
09 20.11 ЮЗ 3 10 км 10/10 330 м
[Sc]
+1.6 -0.3 87 -3 -3 1007.9 987.8
12 20.11 Ю 9 10 км 10/10 480 м
[Sc]
+2.4 +0.5 87 -5 -5 1007.1 987.1
15 20.11 Ю 1 3300 м слабый снег {дождь} 10/10 120 м
[Frnb Ns]
+1.4 +1.1 98 -1 -1 1007.3 987.3
18 20.11 З 3 6000 м в посл. час дождь {снег} 10/10 450 м
[St]
+0.6 +0.1 96 -4 -4 1007.9 987.8 +2.7 2
21 20.11 З 4 5000 м дымка 10/10 240 м
[St]
+0.4 -0.2 96 -5 -5 1008.2 988.0
00 21.11 З 3 3000 м дымка 10/10 240 м
[St]
+0.4 +0.1 98 -4 -4 1008.4 988.2
03 21.11 З 2 1800 м дымка 10/10 150 м
[St]
+0.8 +0.5 98 -3 -3 1008.6 988.5

 

Местоположение метеостанции Слуцк (Минская область, Беларусь): широта 53.03 долгота 27.55 высота над уровнем моря 162 м.

В архиве по умолчанию представлена погода в Слуцке за последнюю неделю. Архивные данные за месяц целиком и за предыдущие месяцы, начиная с января 2011 года, Вы можете получить, выбрав интересующий диапазон дат из раскрывающегося списка и нажав кнопку "Ввод!".

Внимание! Время в таблицах - всемирное. Для получения местного времени необходимо прибавить поправку, которая в Слуцке равна 3 ч.

Смотрите также архив погоды в соседних городах и на ближайших метеорологических станциях:

Погода в Марьиной Горке (Минская область, Беларусь) (61 км)
Погода в Столбцах (Минская область, Беларусь) (74 км)
Погода в Ганцевичах (Брестская область, Беларусь) (81 км)
Погода в Житковичах (Гомельская область, Беларусь) (93 км)
Погода в Октябре (Гомельская область, Беларусь) (99 км)
Погода в Полесской (Брестская область, Беларусь) (99 км)
Погода в Минске (город Минск, Беларусь) (100 км)
Погода в Барановичах (Брестская область, Беларусь) (106 км)
Погода в Бобруйске (Могилевская область, Беларусь) (107 км)
Погода в Кличеве (Могилевская область, Беларусь) (129 км)

Пояснения к столбцам:

Ветер - указаны скорость ветра в м/с - средняя за 10 мин, порывы в срок и между сроками (в фигурных скобках) и направление, откуда дует ветер: С - северный, СВ - северо-восточный, В - восточный, ЮВ - юго-восточный, Ю - южный, ЮЗ - юго-западный, З - западный, СЗ - северо-западный.
Видимость - горизонтальная дальность видимости в метрах или километрах. При видимости от 1 до 10 км при отсутствии осадков обычно наблюдается дымка, при ухудшении видимости до 1 км и менее - туман. В сухую погоду видимость может ухудшаться дымом, пылью или мглою.
Явления - указаны атмосферные явления, наблюдавшиеся в срок или в последний час перед сроком; фигурными скобками обозначены явления, наблюдавшиеся между сроками (за 1-3 часа до срока); квадратными скобками обозначены град или гололедные отложения с указанием их диаметра в мм.
Облачность - указаны через наклонную черту общая и нижняя облачность в баллах и высота нижней границы облаков в метрах; квадратными скобками обозначены формы облаков: Ci - перистые, Cs - перисто-слоистые, Cc - перисто-кучевые, Ac - высококучевые, As - высокослоистые, Sc - слоисто-кучевые, Ns - слоисто-дождевые, Cu - кучевые, Cb - кучево-дождевые. Подробнее классификацию облаков см. в Атласе облаков (PDF).
T - Температура воздуха - температура, измеренная на высоте 2 м над землей.
Td - Температура точки росы - температура, при понижении до которой содержащийся в воздухе водяной пар достигнет насыщения.
f - Относительная влажность воздуха - влажноcть воздуха, измеренная на высоте 2 м над землей.
Te - Эффективная температура - температура, которую ощущает одетый по сезону человек в тени. Характеристика душности погоды. При расчете учитывается влияние влажности воздуха и скорости ветра на теплоощущения человека.
Tes - Эффективная температура на солнце - температура, которую ощущает человек, с поправкой на солнечный нагрев. Характеристика знойности погоды. Зависит от высоты солнца над горизонтом, облачности и скорости ветра. Ночью, в пасмурную погоду, а также при ветре 12 м/с и более поправка равна нулю.
P - Атмосферное давление - приведенное к уровню моря атмосферное давление.
Po - Атмосферное давление - измеренное на уровне метеостанции атмосферное давление.
Tmin - Минимальная температура - минимум температуры воздуха на высоте 2 м над землей.
Tmax - Максимальная температура - максимум температуры воздуха на высоте 2 м над землей.
R - Количество осадков - Количество выпавших осадков за период времени, мм. При наведении курсора мыши на число - период времени, за который выпало указанное количество осадков.
R24 - Количество осадков - Количество выпавших осадков за 24 часа, мм.
S - Снежный покров - Высота снежного покрова, см. При наведении курсора мыши на число - состояние снежного покрова и степень покрытия местности в баллах.